EW0072 Weather Reports


Display with metric or nautical units.
time (UTC)temp
F
wind
direction
speed
MPH
gust
MPH
rain 1hr
in
rain 24hr
in
rain mn
in
humidity
%
barometer
mb
20230130034538 0 69 2.0 4.0 0.00 0.00 0.00 80 1027.3
20230130033033 0 65 3.0 5.0 0.00 0.00 0.00 81 1027.0
20230130031518 0 72 3.0 5.0 0.00 0.00 0.00 81 1027.0
20230130030012 0 69 3.0 7.0 0.00 0.00 0.00 81 1026.8
20230130024506 0 63 2.0 3.0 0.00 0.00 0.00 81 1026.7
20230130023001 0 58 2.0 5.0 0.00 0.00 0.00 82 1026.6
20230130021622 0 51 2.0 6.0 0.00 0.00 0.00 82 1026.4
20230130020054 0 55 2.0 5.0 0.00 0.00 0.00 82 1026.3
20230130014550 0 57 3.0 5.0 0.00 0.00 0.00 81 1026.0
20230130013044 1 63 2.0 5.0 0.00 0.00 0.00 81 1025.9
20230130011531 0 63 1.0 4.0 0.00 0.00 0.00 81 1025.6
20230130010018 1 62 2.0 4.0 0.00 0.00 0.00 81 1025.4
20230130004502 0 53 2.0 6.0 0.00 0.00 0.00 81 1025.0
20230130003058 1 49 3.0 5.0 0.00 0.00 0.00 82 1024.6
20230130001557 1 59 2.0 6.0 0.00 0.00 0.00 82 1024.3
20230130000049 1 54 3.0 6.0 0.00 0.00 0.00 82 1023.9
20230129234547 1 59 4.0 9.0 0.00 0.00 0.00 82 1023.6
20230129233042 1 49 3.0 6.0 0.00 0.00 0.00 81 1023.3
20230129231538 1 44 3.0 7.0 0.00 0.00 0.00 80 1023.2
20230129230031 2 53 3.0 8.0 0.00 0.00 0.00 79 1022.9
20230129224509 2 63 2.0 5.0 0.00 0.00 0.00 78 1022.2
20230129223006 2 67 3.0 9.0 0.00 0.00 0.00 78 1022.0
20230129221556 2 57 3.0 9.0 0.00 0.00 0.00 77 1021.6
20230129220047 2 40 5.0 8.0 0.00 0.00 0.00 77 1021.3
20230129214540 2 36 5.0 9.0 0.00 0.00 0.00 76 1021.3
20230129213036 2 26 4.0 9.0 0.00 0.00 0.00 77 1020.7
20230129211532 2 29 5.0 7.0 0.00 0.00 0.00 77 1020.5
20230129210027 3 40 4.0 7.0 0.00 0.00 0.00 77 1020.4
20230129204534 3 37 4.0 8.0 0.00 0.00 0.00 78 1020.0
20230129203021 3 48 4.0 8.0 0.00 0.00 0.00 79 1019.9
20230129201527 3 31 4.0 7.0 0.00 0.00 0.00 79 1019.9
20230129200010 3 39 4.0 9.0 0.00 0.00 0.00 79 1019.8
20230129194502 3 38 5.0 11.0 0.00 0.00 0.00 79 1019.6
20230129193106 4 36 4.0 8.0 0.00 0.00 0.00 80 1019.6
20230129191557 4 44 4.0 8.0 0.00 0.00 0.00 80 1019.6
20230129190059 4 36 5.0 8.0 0.00 0.00 0.00 80 1019.6
20230129184549 4 63 2.0 8.0 0.00 0.00 0.00 80 1019.7
20230129183037 4 40 4.0 8.0 0.00 0.00 0.00 81 1019.7
20230129181530 4 20 5.0 8.0 0.00 0.00 0.00 81 1019.7
20230129180019 4 38 4.0 8.0 0.00 0.00 0.00 81 1019.8
20230129174518 4 41 2.0 8.0 0.00 0.00 0.00 82 1019.6
20230129173013 4 40 4.0 9.0 0.00 0.00 0.00 81 1019.5
20230129171508 4 38 5.0 8.0 0.00 0.00 0.00 81 1019.3
20230129170001 4 32 5.0 8.0 0.00 0.00 0.00 81 1019.1
20230129164557 5 22 4.0 9.0 0.00 0.00 0.00 81 1019.0
20230129163045 5 40 2.0 7.0 0.00 0.00 0.00 82 1018.7
20230129161536 5 51 3.0 6.0 0.00 0.00 0.00 82 1018.5
20230129160031 5 58 2.0 4.0 0.00 0.00 0.00 82 1018.6
20230129154539 5 47 3.0 7.0 0.00 0.00 0.00 82 1018.3
20230129153021 5 53 3.0 5.0 0.00 0.00 0.00 83 1018.3
20230129151518 5 66 2.0 5.0 0.00 0.00 0.00 83 1018.1
20230129150012 5 56 2.0 4.0 0.00 0.00 0.00 83 1018.0
20230129144511 5 53 3.0 6.0 0.00 0.00 0.00 83 1017.7
20230129143049 5 47 3.0 7.0 0.00 0.00 0.00 83 1017.5
20230129141548 5 47 4.0 6.0 0.00 0.00 0.00 83 1017.4
20230129140037 6 53 2.0 6.0 0.00 0.00 0.00 83 1017.0
20230129134521 6 63 3.0 7.0 0.00 0.00 0.00 83 1016.6
20230129133025 6 51 2.0 5.0 0.00 0.00 0.00 83 1016.2
20230129131513 7 63 3.0 6.0 0.00 0.00 0.00 83 1016.0
20230129130019 7 63 2.0 6.0 0.00 0.00 0.00 83 1016.2
20230129124505 7 65 1.0 4.0 0.00 0.00 0.00 83 1015.8
20230129123108 7 69 3.0 7.0 0.00 0.00 0.00 83 1015.6
20230129121557 7 70 3.0 8.0 0.00 0.00 0.00 83 1015.5
20230129120041 7 59 2.0 8.0 0.00 0.00 0.00 83 1015.7
20230129114539 8 69 5.0 8.0 0.00 0.00 0.00 83 1015.6
20230129113032 8 71 5.0 11.0 0.00 0.00 0.00 83 1015.2
20230129111537 8 119 5.0 10.0 0.00 0.00 0.00 83 1015.0
20230129110025 8 86 6.0 8.0 0.00 0.00 0.00 83 1015.4
20230129104518 9 77 5.0 8.0 0.00 0.00 0.00 83 1015.3
20230129103018 8 78 5.0 8.0 0.00 0.00 0.00 83 1015.2
20230129101512 8 118 5.0 9.0 0.00 0.00 0.00 83 1015.2
20230129100050 9 69 4.0 10.0 0.00 0.00 0.00 83 1015.3
20230129094544 9 88 5.0 9.0 0.00 0.00 0.00 83 1015.3
20230129093020 9 75 4.0 8.0 0.00 0.00 0.00 83 1015.5
20230129091516 9 98 4.0 8.0 0.00 0.00 0.00 83 1015.7
20230129090056 9 103 6.0 10.0 0.00 0.00 0.00 83 1015.7
20230129084551 8 107 7.0 11.0 0.00 0.00 0.00 84 1015.5
20230129083036 9 82 8.0 11.0 0.00 0.00 0.00 84 1015.7
20230129081531 9 91 6.0 10.0 0.00 0.00 0.00 84 1015.8
20230129080028 9 95 5.0 8.0 0.00 0.00 0.00 85 1015.8
20230129074531 9 113 5.0 10.0 0.00 0.00 0.00 85 1015.9
20230129073029 10 78 4.0 9.0 0.00 0.00 0.00 85 1015.9
20230129071534 10 82 6.0 9.0 0.00 0.00 0.00 85 1015.7
20230129070038 10 61 5.0 8.0 0.00 0.00 0.00 85 1015.6
20230129064523 10 87 6.0 11.0 0.00 0.00 0.00 85 1015.7
20230129063002 10 78 6.0 8.0 0.00 0.00 0.00 86 1015.8
20230129061601 10 58 4.0 9.0 0.00 0.00 0.00 85 1015.8
20230129060050 11 53 5.0 8.0 0.00 0.00 0.00 85 1016.0
20230129054548 11 74 4.0 7.0 0.00 0.00 0.00 86 1016.2
20230129053051 11 63 2.0 7.0 0.00 0.00 0.00 86 1015.9
20230129051603 12 58 3.0 11.0 0.00 0.00 0.00 86 1015.8
20230129050039 12 65 5.0 9.0 0.00 0.00 0.00 86 1015.6
20230129044538 13 69 7.0 11.0 0.00 0.00 0.00 87 1015.5
20230129043035 13 57 7.0 13.0 0.00 0.00 0.00 87 1015.2
20230129041529 13 56 5.0 11.0 0.00 0.00 0.00 87 1015.1
20230129040024 14 53 5.0 9.0 0.00 0.00 0.00 87 1014.8